INTELSAT 37E (IS-37E)

Last updated on Tue Jul 01 2025 00:02:47 GMT+0000 (Coordinated Universal Time)

1 42950U 17059A 25181.42148112 -.00000142 00000+0 00000+0 0 9998 2 42950 0.0176 44.0812 0002679 81.1459 287.2258 1.00271140 28535
UTC large
Height (km)
Speed (km/s)
/
Latitude / Longitude
Inclination (degrees)
Orbital Period (minutes)
Azimuth
Elevation
Range (km)
Doppler Factor

Next 0 passes for location: London (51.5072 / 0.1276)

Sorry there are no passes over London.